St. Joseph, KS

6:28 AM CDT on September 20, 2017 (GMT -0500)
Rosecrans Memorial

Weather History for KSTJ - April, 2013

Change the Weather History Date:

Thursday, April 25, 2013

  Actual Average Record
Temperature  
Mean Temperature 50 °F 57 °F  
Max Temperature 69 °F 68 °F 96 °F (2012)
Min Temperature 31 °F 46 °F 31 °F (2013)
Degree Days  
Heating Degree Days 15 9  
Month to date heating degree days 448 306  
Since 1 July heating degree days 5401 5299  
Cooling Degree Days 0 1  
Month to date cooling degree days 0 18  
Year to date cooling degree days 0 20  
Moisture  
Dew Point 34 °F    
Average Humidity 62    
Maximum Humidity 96    
Minimum Humidity 27    
Precipitation  
Precipitation 0.00 in 0.15 in 1.56 in (1904)
Month to date precipitation 3.42 2.92  
Year to date precipitation 6.51 6.66  
Sea Level Pressure  
Sea Level Pressure 30.23 in    
Wind  
Wind Speed 8 mph (South)    
Max Wind Speed 20 mph    
Max Gust Speed 23 mph    
Visibility 10 miles    
Events      
T = Trace of Precipitation, MM = Missing Value Source: NWS Daily Summary

Daily Weather History Graph

Daily Weather History Graph

Search for Another Location

Airport or City:

Trip Planner

Search our weather history database for the weather conditions in past years. The results will help you decide how hot, cold, wet, or windy it might be!

Date:

Astronomy

Apr. 25, 2013 Rise Set
Actual Time 6:27 AM CDT 8:08 PM CDT
Civil Twilight 5:58 AM CDT 8:36 PM CDT
Nautical Twilight 5:24 AM CDT 9:11 PM CDT
Astronomical Twilight 4:47 AM CDT 9:48 PM CDT
Moon 8:22 PM CDT (4/25) 6:11 AM CDT (4/25)
Length of Visible Light 14h 38m
Length of Day
13h 40m
Full, 100% of the Moon is Illuminated
Apr 25
Full
Apr 25
Full
May 2
Last Quarter
May 9
New
May 17
First Quarter

Hourly Weather History & Observations

Time (CDT) Temp. Windchill Dew Point Humidity Pressure Visibility Wind Dir Wind Speed Gust Speed Precip Events Conditions
12:53 AM 43.0 °F 39.5 °F 35.1 °F 74% 30.25 in 10.0 mi NW 5.8 mph - N/A   Partly Cloudy
1:53 AM 41.0 °F 35.8 °F 33.1 °F 73% 30.27 in 10.0 mi NNW 8.1 mph - N/A   Clear
2:53 AM 37.0 °F 33.3 °F 32.0 °F 82% 30.26 in 10.0 mi NNE 4.6 mph - N/A   Clear
3:53 AM 35.1 °F - 30.0 °F 82% 30.26 in 10.0 mi Calm Calm - N/A   Clear
4:53 AM 33.1 °F - 30.0 °F 89% 30.27 in 10.0 mi Calm Calm - N/A   Clear
5:53 AM 35.1 °F - 33.1 °F 92% 30.27 in 4.0 mi Calm Calm - N/A   Clear
6:53 AM 34.0 °F 31.0 °F 32.0 °F 92% 30.29 in 3.0 mi SSW 3.5 mph - N/A   Clear
7:53 AM 37.9 °F 35.5 °F 35.1 °F 89% 30.31 in 10.0 mi South 3.5 mph - N/A   Clear
8:53 AM 45.0 °F 42.6 °F 37.0 °F 74% 30.32 in 10.0 mi SSW 4.6 mph - N/A   Clear
9:53 AM 51.1 °F - 30.0 °F 44% 30.31 in 10.0 mi South 8.1 mph - N/A   Clear
10:53 AM 55.9 °F - 30.9 °F 39% 30.30 in 10.0 mi ESE 3.5 mph - N/A   Clear
11:53 AM 57.9 °F - 28.0 °F 32% 30.30 in 10.0 mi South 4.6 mph - N/A   Clear
12:53 PM 61.0 °F - 28.9 °F 30% 30.28 in 10.0 mi Variable 6.9 mph - N/A   Clear
1:53 PM 63.0 °F - 30.0 °F 29% 30.25 in 10.0 mi SSW 10.4 mph 16.1 mph N/A   Clear
2:53 PM 66.9 °F - 32.0 °F 27% 30.21 in 10.0 mi SSE 11.5 mph 17.3 mph N/A   Clear
3:53 PM 68.0 °F - 33.1 °F 27% 30.19 in 10.0 mi SSW 15.0 mph - N/A   Clear
4:53 PM 68.0 °F - 35.1 °F 30% 30.17 in 10.0 mi SSW 12.7 mph - N/A   Clear
5:53 PM 68.0 °F - 34.0 °F 28% 30.16 in 10.0 mi SSW 13.8 mph 20.7 mph N/A   Clear
6:53 PM 66.0 °F - 35.1 °F 32% 30.14 in 10.0 mi South 12.7 mph - N/A   Clear
7:53 PM 63.0 °F - 37.0 °F 38% 30.13 in 10.0 mi South 12.7 mph - N/A   Clear
8:53 PM 61.0 °F - 39.0 °F 44% 30.13 in 10.0 mi South 15.0 mph - N/A   Clear
9:53 PM 60.1 °F - 37.9 °F 44% 30.14 in 10.0 mi South 13.8 mph - N/A   Mostly Cloudy
10:53 PM 59.0 °F - 37.9 °F 46% 30.14 in 10.0 mi South 11.5 mph - N/A   Overcast
11:53 PM 57.9 °F - 37.9 °F 47% 30.14 in 10.0 mi SSE 9.2 mph - N/A   Overcast